Regional Weather Roundup
Issued by NWS

Home | Current Version | Previous Version | Graphics & Text | Print | Product List | Glossary On
Versions: 1 2 3 4 5 6 7 8 9 10 11 12 13 14 15 16 17 18 19 20 21 22 23 24 25 26 27 28 29 30 31 32 33 34 35 36 37 38 39 40 41 42 43 44 45 46 47 48 49 50
000
ASUS43 KBIS 172002
RWRND

NORTH DAKOTA REGIONAL WEATHER ROUNDUP
NATIONAL WEATHER SERVICE BISMARCK ND
200 PM CST TUE JAN 17 2017

NOTE: "FAIR" INDICATES FEW OR NO CLOUDS BELOW 12,000 FEET WITH NO
SIGNIFICANT WEATHER AND/OR OBSTRUCTIONS TO VISIBILITY.


NDZ001>003-009>011-017-172100-
NORTHWEST NORTH DAKOTA

CITY           SKY/WX    TMP DP  RH WIND       PRES   REMARKS
WILLISTON      FAIR      27  16  63 SW13      29.71F WCI  16
MINOT          FAIR      29  17  61 S20G30    29.67F WCI  16
$$

NDZ018>021-031>035-040>046-172100-
SOUTHWEST NORTH DAKOTA

CITY           SKY/WX    TMP DP  RH WIND       PRES   REMARKS
BISMARCK       FAIR      22  14  71 E3        29.83F
DICKINSON      FAIR      29  19  66 W20       29.74F WCI  16
GARRISON         N/A     27  17  66 SW12      29.74F WCI  17
HETTINGER ARPT CLOUDY    31  18  58 S3        29.83F
$$

NDZ004>008-012>016-024-026-027-054-172100-
NORTHEAST NORTH DAKOTA

CITY           SKY/WX    TMP DP  RH WIND       PRES   REMARKS
GRAND FORKS    CLOUDY    21  14  74 S15       29.83F WCI   8
GRND FRKS AFB  CLOUDY    29  20  70 S13       29.81F WCI  18
DEVILS LAKE    FAIR      27  18  69 SW17      29.75F WCI  14
$$

NDZ022-023-025-028>030-036>039-047>053-172100-
SOUTHEAST NORTH DAKOTA

CITY           SKY/WX    TMP DP  RH WIND       PRES   REMARKS
FARGO          CLOUDY    22  16  78 S9        29.91F WCI  12
JAMESTOWN      FAIR      30  23  75 S12       29.83F
$$





USA.gov is the U.S. government's official web portal to all federal, state and local government web resources and services.